Hill City, KS

3:50 AM CST on February 25, 2017 (GMT -0600)
Hill City Municipal

Weather History for KHLC - November, 2011

Change the Weather History Date:

Thursday, November 17, 2011

  Actual Average Record
Temperature  
Mean Temperature 36 °F 40 °F  
Max Temperature 53 °F 53 °F 82 °F (1943)
Min Temperature 18 °F 27 °F 0 °F (1959)
Degree Days  
Heating Degree Days 29    
Moisture  
Dew Point 20 °F    
Average Humidity 54    
Maximum Humidity 81    
Minimum Humidity 27    
Precipitation  
Precipitation 0.00 in 0.04 in 0.45 in (2015)
Month to date precipitation 0.55 0.63  
Year to date precipitation 19.62 21.91  
Sea Level Pressure  
Sea Level Pressure 30.13 in    
Wind  
Wind Speed 10 mph (SW)    
Max Wind Speed 24 mph    
Max Gust Speed 34 mph    
Visibility 10 miles    
Events      
T = Trace of Precipitation, MM = Missing Value Source: NWS Daily Summary

Daily Weather History Graph

Daily Weather History Graph

Search for Another Location

Airport or City:

Trip Planner

Search our weather history database for the weather conditions in past years. The results will help you decide how hot, cold, wet, or windy it might be!

Date:

Astronomy

Nov. 17, 2011 Rise Set
Actual Time 7:25 AM CST 5:23 PM CST
Civil Twilight 6:56 AM CST 5:51 PM CST
Nautical Twilight 6:23 AM CST 6:24 PM CST
Astronomical Twilight 5:51 AM CST 6:56 PM CST
Moon 11:44 PM CST (11/17) 12:35 PM CST (11/17)
Length of Visible Light 10h 55m
Length of Day
9h 58m
Waning Gibbous, 59% of the Moon is Illuminated
Nov 17
Waning Gibbous
Nov 18
Last Quarter
Nov 25
New
Dec 2
First Quarter
Dec 10
Full

Hourly Weather History & Observations

Time (CST) Temp. Windchill Dew Point Humidity Pressure Visibility Wind Dir Wind Speed Gust Speed Precip Events Conditions
12:53 AM 19.9 °F 12.1 °F 15.1 °F 81% 30.44 in 10.0 mi West 5.8 mph - N/A   Clear
1:53 AM 19.9 °F 12.1 °F 14.0 °F 78% 30.42 in 10.0 mi West 5.8 mph - N/A   Clear
2:53 AM 19.0 °F 12.3 °F 14.0 °F 81% 30.41 in 10.0 mi West 4.6 mph - N/A   Clear
4:53 AM 21.9 °F 13.4 °F 16.0 °F 78% 30.35 in 10.0 mi West 6.9 mph - N/A   Clear
5:53 AM 19.9 °F 12.1 °F 15.1 °F 81% 30.35 in 10.0 mi West 5.8 mph - N/A   Clear
6:53 AM 23.0 °F 14.7 °F 18.0 °F 81% 30.34 in 10.0 mi WSW 6.9 mph - N/A   Clear
7:53 AM 24.1 °F 15.2 °F 19.0 °F 81% 30.33 in 10.0 mi WSW 8.1 mph - N/A   Clear
8:53 AM 32.0 °F 22.5 °F 21.9 °F 66% 30.31 in 10.0 mi WSW 12.7 mph - N/A   Clear
9:53 AM 37.9 °F 29.6 °F 26.1 °F 62% 30.27 in 10.0 mi SW 13.8 mph - N/A   Clear
11:53 AM 48.0 °F - 23.0 °F 37% 30.17 in 10.0 mi SW 20.7 mph 33.4 mph N/A   Clear
12:53 PM 51.1 °F - 21.0 °F 31% 30.12 in 10.0 mi SSW 24.2 mph 34.5 mph N/A   Clear
1:53 PM 52.0 °F - 19.9 °F 28% 30.07 in 10.0 mi SSW 21.9 mph 32.2 mph N/A   Clear
2:53 PM 53.1 °F - 19.9 °F 27% 30.04 in 10.0 mi SSW 20.7 mph 31.1 mph N/A   Clear
3:53 PM 52.0 °F - 19.9 °F 28% 30.01 in 10.0 mi SSW 19.6 mph 29.9 mph N/A   Clear
4:53 PM 51.1 °F - 21.0 °F 31% 29.98 in 10.0 mi South 11.5 mph 19.6 mph N/A   Clear
5:53 PM 46.9 °F - 21.0 °F 36% 29.97 in 10.0 mi South 8.1 mph - N/A   Clear
6:53 PM 45.0 °F 41.2 °F 21.0 °F 39% 29.96 in 10.0 mi SSW 6.9 mph - N/A   Clear
7:53 PM 43.0 °F 40.3 °F 21.9 °F 43% 29.94 in 10.0 mi Variable 4.6 mph - N/A   Clear
8:53 PM 42.1 °F 36.6 °F 21.9 °F 45% 29.91 in 10.0 mi SSW 9.2 mph 16.1 mph N/A   Clear
9:53 PM 42.1 °F 37.7 °F 23.0 °F 47% 29.88 in 10.0 mi SSW 6.9 mph 17.3 mph N/A   Clear
10:53 PM 42.1 °F 35.2 °F 23.0 °F 47% 29.84 in 10.0 mi SSW 12.7 mph 25.3 mph N/A   Clear
11:53 PM 41.0 °F 35.8 °F 23.0 °F 49% 29.82 in 10.0 mi SSW 8.1 mph 17.3 mph N/A   Clear